sat.trackr.live / text

‹ back to catalog

STARLINK-37443

NORAD 68824 · 2026-089Y

PAYLOAD ACTIVE UNKNOWN

§ Identity

Operator
Country
US
Launch date
2026-04-23
Launch site
AFWTR
Launch vehicle
Mass (kg)
RCS (m²)

Purposes: comms

External: N2YO · Heavens-Above · Gunter

§ Orbital elements

Epoch: 2026-05-25T02:27:25.315776Z

Period
91.42 min
Inclination
97.2848°
Eccentricity
0.0001421
Mean motion
15.75220543 rev/d
Perigee alt
343.0 km
Apogee alt
345.0 km
Semi-major
6,722.1 km
B*
6.5423e-4
RAAN
351.7777°
Arg perigee
95.4214°
Mean anomaly
264.7213°
Rev number
506

§ Raw data

STARLINK-374431 68824U 26089Y   26145.10237634  .00098719  00000+0  65423-3 0  99932 68824  97.2848 351.7777 0001421  95.4214 264.7213 15.75220543  5068

JSON: /api/v1/satellites/68824 · /tle

For live sub-satellite position, see the globe view (requires WebGL).

§ Visibility from observer

Set your observer location to see the next 7 days of passes ≥ 10°. The values pass through the URL so the page stays shareable.

No JS? Fill the form by hand. The geolocation button needs JavaScript.